[[{"header":{"parameterUnit":"m.s-1","parameterCategory":1,"la1":30.2991,"la2":30.254,"lo1":-89.0895,"lo2":-89.0444,"dy":0.0017,"dx":0.0017,"nx":28,"ny":28,"refTime":"2025-08-21T21:00:00:Z","depth":0,"parameterNumber":2,"parameterNumberName":"U-component_of_WINDS"},"data":[0,0,0,0,0,0,0,0,0,0,0,0,0,0,0,0,0,0,0,0,0,0,0,0,0,0,0,0,0,0,0,0,0,0,0,0,0,0,0,0,0,0,0,0,0,0,0,0,0,0,0,0,0,0,0,0,0,0,2.0657,2.0657,0,2.0684,2.0684,2.0685,2.065,2.0649,2.0648,2.0646,2.0679,2.0681,2.0683,0,0,0,0,0,0,0,0,0,0,0,0,0,2.0578,2.0579,2.0657,2.0657,2.0657,2.0684,2.0684,2.0685,2.065,2.0649,2.0647,2.0646,2.0678,2.0681,2.0683,0,0,0,0,0,0,0,0,0,0,0,0,0,2.0609,2.058,2.0656,2.0643,2.0642,2.0684,2.0684,2.0685,2.0651,2.0649,2.0647,2.0645,2.0677,2.068,2.0683,2.0741,0,0,2.0693,2.0694,0,0,0,0,0,0,0,0,2.0608,2.0612,2.0645,2.0644,2.0643,2.0662,2.0668,2.0704,2.0651,2.0648,2.0646,2.0644,2.0675,2.0678,2.0688,2.0742,2.0744,2.0693,2.0695,2.0696,2.0697,0,0,0,0,0,0,0,2.0605,2.0611,2.0668,2.0645,2.0644,2.0637,2.0639,2.0675,2.0672,2.0648,2.0645,2.0649,2.0674,2.0685,2.0688,2.0744,2.0693,2.0696,2.0698,2.0699,2.0847,2.0849,0,0,0,0,0,0,2.0604,2.0609,2.0667,2.0668,2.062,2.064,2.0643,2.0658,2.0671,2.0671,2.065,2.0647,2.068,2.0685,2.0689,2.0757,2.0696,2.0699,2.0701,2.0845,2.0847,2.0849,0,0,0,0,0,0,2.0603,2.061,2.0666,2.0638,2.0645,2.0643,2.0661,2.0659,2.067,2.0673,2.0673,2.0662,2.0679,2.0685,2.0728,2.0757,2.0701,2.0703,2.0842,2.0845,2.0848,2.0893,0,0,0,0,0,0,2.0601,2.0609,2.063,2.0639,2.0646,2.0703,2.0662,2.0661,2.0675,2.0671,2.0684,2.0684,2.0678,2.0723,2.0731,2.0761,2.0706,2.084,2.0844,2.0847,2.0889,2.0897,2.0904,0,0,0,0,0,2.0598,2.0643,2.0632,2.0639,2.0672,2.0705,2.0709,2.07,2.0677,2.0699,2.0701,2.0684,2.0753,2.0728,2.0736,2.0767,2.0838,2.0843,2.0847,2.0885,2.0895,2.0904,0,0,0,0,0,0,2.064,2.0644,2.0631,2.068,2.0692,2.0699,2.0726,2.0711,2.0731,2.0726,2.0716,2.0719,2.0765,2.077,2.0743,2.0823,2.0792,2.0798,2.0818,2.0828,2.0835,2.0833,2.0708,0,0,0,0,0,2.0654,2.0679,2.0682,2.0725,2.0731,2.0727,2.0741,2.0733,2.0745,2.0751,2.0756,2.077,2.0795,2.0811,2.0835,2.0889,2.0892,2.0915,2.0922,2.0929,2.0935,2.0963,2.0974,2.0865,2.0865,2.0865,0,0,2.0686,2.0691,2.0707,2.0733,2.0741,2.0768,2.0732,2.0762,2.0782,2.0756,2.0796,2.0801,2.0815,2.0864,2.0886,2.087,2.0965,2.0935,2.094,2.0942,2.0969,2.098,2.0989,2.0868,2.0867,2.0867,0,0,2.0756,2.0762,2.0798,2.0807,2.0819,2.0816,2.0825,2.0833,2.0835,2.0874,2.0855,2.0879,2.0922,2.0933,2.0945,2.1018,2.1003,2.1026,2.1067,2.1095,2.1103,2.1111,2.1137,2.1146,2.1032,2.1032,2.1032,0,2.0793,2.0832,2.0819,2.085,2.0862,2.0838,2.0874,2.0884,2.0904,2.0913,2.0895,2.0947,2.0956,2.1007,2.1024,2.1034,2.1044,2.1024,2.1103,2.111,2.1117,2.1142,2.1152,2.1034,2.1034,2.1034,2.1034,0,2.0877,2.0904,2.0932,2.0949,2.0965,2.0999,2.0992,2.1009,2.0999,2.0999,2.104,2.1048,2.1072,2.1084,2.1076,2.1133,2.1123,2.1104,2.1072,2.113,2.1153,2.1163,2.1038,2.1037,2.1036,2.1036,0,0,2.0975,2.0985,2.0995,2.1003,2.1014,2.1035,2.1068,2.109,2.1104,2.1119,2.1146,2.1183,2.1164,2.1177,2.117,2.1195,2.1252,2.1172,2.1173,2.1187,2.1316,2.133,2.1341,2.1241,2.1243,2.1244,2.1314,0,2.1045,2.1101,2.109,2.1144,2.1169,2.1146,2.1174,2.1185,2.1185,2.1206,2.1207,2.1233,2.1207,2.1214,2.1238,2.124,2.1277,2.1235,2.1268,2.1269,2.1265,2.1353,2.1369,2.1434,2.1323,2.1325,2.1326,0,2.1135,2.115,2.1207,2.1213,2.1223,2.1249,2.1268,2.1288,2.13,2.1298,2.1312,2.1299,2.1333,2.13,2.1346,2.1317,2.133,2.1333,2.1335,2.1338,2.1301,2.1359,2.1455,2.1465,2.134,2.1339,2.1338,0,2.12,2.1236,2.1274,2.1281,2.129,2.1308,2.1313,2.1322,2.1336,2.1353,2.1361,2.1383,2.1394,2.1411,2.1405,2.1382,2.1452,2.1419,2.1452,2.1453,2.1469,2.1468,2.1569,2.1477,2.1477,2.1477,2.1476,0,2.128,2.1315,2.1303,2.1327,2.1366,2.1354,2.1393,2.1395,2.1403,2.1427,2.1409,2.1432,2.1423,2.1445,2.1441,2.1479,2.1485,2.1485,2.1484,2.1487,2.1487,2.1495,2.1491,2.1479,2.1479,2.1478,2.1478,0,2.136,2.1354,2.1394,2.1398,2.14,2.1428,2.1432,2.1454,2.1452,2.1483,2.149,2.1487,2.1513,2.1508,2.1537,2.1534,2.1582,2.1575,2.1578,2.1576,2.161,2.1606,2.1719,2.1734,2.1633,2.1634,2.1635,0,2.1411,2.1438,2.1444,2.1458,2.1464,2.1487,2.15,2.1489,2.1503,2.1518,2.1539,2.1562,2.158,2.1623,2.1624,2.1646,2.1639,2.1677,2.1643,2.1645,2.164,2.1638,2.1641,2.1685,2.1686,2.1687,2.1687,0,2.1503,2.1498,2.1517,2.1535,2.155,2.1564,2.1577,2.1589,2.1579,2.1597,2.1622,2.1636,2.1664,2.1688,2.1708,2.1714,2.17,2.1698,2.1707,2.1711,2.1711,2.1711,2.1596,2.1696,2.1695,2.1694,2.1694,2.1693,2.157,2.1592,2.16,2.1621,2.1629,2.164,2.1661,2.1661,2.1681,2.1703,2.1695,2.1724,2.1734,2.1759,2.1767,2.179,2.1776,2.1789,2.1792,2.1796,2.1799,2.1707,2.1794,2.1793,2.1793,2.1793,2.1793,0,2.166,2.1664,2.1684,2.17,2.1717,2.17,2.1713,2.1728,2.1753,2.1763,2.1781,2.181,2.1833,2.1835,2.1857,2.1875,2.1868,2.1881,2.1879,2.1881,2.1811,2.1801,2.1885,2.1885,2.1885,2.1885,2.1885,2.1885,2.1709,2.1745,2.1741,2.1781,2.1784,2.1811,2.182,2.183,2.1838,2.1871,2.1889,2.189,2.1897,2.1919,2.1939,2.1939,2.1948,2.1963,2.1961,2.1895,2.1886,2.1877,2.1868,2.1965,2.1965,2.2029,2.2029,2.203]},{"header":{"parameterUnit":"m.s-1","parameterCategory":1,"la1":30.2991,"la2":30.254,"lo1":-89.0895,"lo2":-89.0444,"dy":0.0017,"dx":0.0017,"nx":28,"ny":28,"refTime":"2025-08-21T21:00:00:Z","depth":0,"parameterNumber":3,"parameterNumberName":"V-component_of_WINDS"},"data":[0,0,0,0,0,0,0,0,0,0,0,0,0,0,0,0,0,0,0,0,0,0,0,0,0,0,0,0,0,0,0,0,0,0,0,0,0,0,0,0,0,0,0,0,0,0,0,0,0,0,0,0,0,0,0,0,0,0,2.6512,2.6511,0,2.6472,2.6471,2.6471,2.6475,2.6476,2.6477,2.6477,2.6431,2.6429,2.6427,0,0,0,0,0,0,0,0,0,0,0,0,0,2.6586,2.6585,2.6512,2.6511,2.6511,2.6472,2.6471,2.6471,2.6475,2.6476,2.6477,2.6477,2.6431,2.6429,2.6427,0,0,0,0,0,0,0,0,0,0,0,0,0,2.6551,2.6585,2.6512,2.6509,2.6508,2.6472,2.6471,2.647,2.6475,2.6476,2.6477,2.6478,2.6432,2.6429,2.6427,2.639,0,0,2.6418,2.6417,0,0,0,0,0,0,0,0,2.6553,2.6548,2.651,2.6509,2.6508,2.648,2.648,2.6443,2.6475,2.6487,2.6477,2.6478,2.6446,2.6442,2.6432,2.6388,2.6386,2.6418,2.6416,2.6415,2.6414,0,0,0,0,0,0,0,2.6555,2.655,2.6496,2.6509,2.6508,2.6507,2.6503,2.6473,2.6461,2.6486,2.6487,2.6482,2.6446,2.6435,2.6431,2.6385,2.6418,2.6416,2.6414,2.6413,2.6305,2.6304,0,0,0,0,0,0,2.6559,2.6552,2.6497,2.6495,2.6533,2.6505,2.65,2.6488,2.6462,2.6459,2.6481,2.6482,2.6439,2.6434,2.643,2.6382,2.6415,2.6413,2.6411,2.6306,2.6305,2.6303,0,0,0,0,0,0,2.6561,2.6555,2.6499,2.6523,2.6516,2.6503,2.6488,2.6486,2.6476,2.6458,2.6455,2.6473,2.644,2.6433,2.6399,2.6381,2.6411,2.6409,2.6308,2.6306,2.6304,2.6289,0,0,0,0,0,0,2.6563,2.6555,2.6543,2.6523,2.6515,2.6471,2.6487,2.6485,2.6471,2.6473,2.6449,2.6446,2.644,2.6403,2.6397,2.6378,2.6407,2.6309,2.6307,2.6305,2.6291,2.6287,2.6284,0,0,0,0,0,2.6566,2.6539,2.6542,2.6535,2.6499,2.647,2.6465,2.646,2.647,2.6456,2.6444,2.6447,2.6385,2.64,2.6392,2.6372,2.631,2.6307,2.6305,2.6293,2.6288,2.6284,0,0,0,0,0,0,2.6556,2.6537,2.6539,2.6506,2.649,2.6471,2.6453,2.6455,2.6434,2.6436,2.6428,2.6423,2.6388,2.6377,2.6395,2.6333,2.6348,2.6344,2.6342,2.6337,2.6333,2.6336,2.6404,0,0,0,0,0,2.655,2.653,2.6514,2.6486,2.6478,2.6467,2.6454,2.6451,2.6433,2.6426,2.6412,2.6393,2.6368,2.6352,2.6329,2.629,2.6283,2.6272,2.6268,2.6265,2.6261,2.6236,2.623,2.6294,2.6294,2.6295,0,0,2.6537,2.6525,2.6512,2.6484,2.6471,2.6447,2.6461,2.6437,2.6419,2.6422,2.6388,2.6377,2.6355,2.6318,2.63,2.6307,2.6242,2.6262,2.626,2.6257,2.6233,2.6227,2.6221,2.6293,2.6293,2.6293,0,0,2.6502,2.6492,2.6466,2.6453,2.6433,2.6426,2.642,2.64,2.6393,2.636,2.6361,2.6339,2.6298,2.6281,2.6267,2.6224,2.6224,2.6217,2.6196,2.6172,2.6166,2.6162,2.6143,2.6137,2.6213,2.6213,2.6213,0,2.6488,2.6455,2.6452,2.6427,2.6413,2.6417,2.6389,2.6376,2.6349,2.6338,2.6347,2.6294,2.628,2.6237,2.6226,2.6216,2.6206,2.6218,2.6168,2.6163,2.6159,2.6141,2.6134,2.6212,2.6212,2.6212,2.6212,0,2.6437,2.6415,2.6396,2.6371,2.6355,2.6329,2.632,2.6304,2.6302,2.6293,2.6258,2.6241,2.6213,2.6203,2.6201,2.6159,2.6163,2.617,2.6184,2.6152,2.6135,2.6128,2.621,2.621,2.6211,2.6211,0,0,2.6394,2.6368,2.6361,2.6348,2.6326,2.6307,2.628,2.6254,2.6239,2.622,2.6195,2.616,2.6166,2.615,2.6146,2.6125,2.6088,2.6134,2.6133,2.6123,2.6037,2.603,2.6022,2.6089,2.6088,2.6087,2.6038,0,2.6354,2.6308,2.6304,2.6262,2.6238,2.6241,2.6216,2.6199,2.6189,2.6167,2.6156,2.613,2.6141,2.6131,2.611,2.6097,2.607,2.6101,2.6062,2.6061,2.6066,2.6014,2.6007,2.5962,2.6031,2.603,2.6029,0,2.6302,2.6282,2.6238,2.6217,2.6207,2.6186,2.616,2.614,2.6119,2.6113,2.6095,2.6093,2.6062,2.6079,2.6035,2.6056,2.604,2.603,2.6028,2.6023,2.6042,2.6004,2.5947,2.5939,2.6019,2.602,2.6021,0,2.6271,2.6234,2.6202,2.6191,2.6167,2.6152,2.614,2.6121,2.6105,2.6082,2.6071,2.6044,2.6029,2.6007,2.5997,2.6011,2.5952,2.5969,2.5943,2.5943,2.5929,2.593,2.5866,2.5923,2.5923,2.5924,2.5924,0,2.6226,2.6198,2.6187,2.6167,2.6135,2.6129,2.6097,2.6086,2.6068,2.6044,2.6044,2.6021,2.601,2.5984,2.5976,2.5938,2.5932,2.5925,2.5922,2.5923,2.5924,2.5911,2.5913,2.5922,2.5922,2.5923,2.5923,0,2.6186,2.6178,2.6142,2.6122,2.6117,2.6093,2.6075,2.6054,2.6045,2.6014,2.6006,2.5991,2.5961,2.5949,2.5912,2.5906,2.5861,2.5863,2.5869,2.5867,2.5842,2.5843,2.5765,2.5753,2.5821,2.5821,2.582,0,2.6156,2.6134,2.6112,2.6097,2.6086,2.6061,2.6044,2.6038,2.602,2.5994,2.5975,2.5945,2.5921,2.5872,2.5855,2.5826,2.5825,2.58,2.582,2.5821,2.5821,2.5821,2.5817,2.5795,2.5795,2.5794,2.5794,0,2.6103,2.61,2.6078,2.6053,2.6034,2.6014,2.5994,2.5981,2.5971,2.5951,2.5921,2.5902,2.5864,2.5832,2.5802,2.5788,2.5787,2.5788,2.5779,2.5779,2.5782,2.5777,2.5855,2.5789,2.5789,2.579,2.579,2.579,2.6065,2.6045,2.6026,2.6,2.5985,2.5966,2.5945,2.5934,2.5909,2.5878,2.5875,2.5842,2.5819,2.5778,2.5762,2.5734,2.574,2.5729,2.5726,2.5723,2.5719,2.5789,2.5729,2.5729,2.5729,2.5729,2.5729,0,2.601,2.5998,2.5974,2.5947,2.5926,2.5931,2.5909,2.589,2.5861,2.584,2.5816,2.578,2.5749,2.5731,2.5699,2.568,2.5679,2.5672,2.5671,2.5667,2.5717,2.5726,2.5673,2.5673,2.5673,2.5673,2.5673,2.5673,2.5979,2.5944,2.5939,2.5895,2.5883,2.5851,2.5838,2.5819,2.5803,2.5762,2.5738,2.5727,2.5706,2.5673,2.5644,2.5639,2.5626,2.5617,2.5612,2.5659,2.5664,2.567,2.5678,2.5616,2.5615,2.5565,2.5564,2.5564]}]]